Millinocket, ME

6:47 AM EDT on May 24, 2017 (GMT -0400)
Millinocket Municipal

Weather History for KMLT - December, 2012

Change the Weather History Date:

Friday, December 28, 2012

  Actual Average Record
Temperature  
Mean Temperature 25 °F 18 °F  
Max Temperature 29 °F 27 °F 52 °F (2011)
Min Temperature 20 °F 9 °F -34 °F (1933)
Degree Days  
Heating Degree Days 40 47  
Month to date heating degree days 1091 1179  
Since 1 July heating degree days 2734 3022  
Cooling Degree Days 0 0  
Month to date cooling degree days 0 0  
Year to date cooling degree days 443 268  
Moisture  
Dew Point 17 °F    
Average Humidity 76    
Maximum Humidity 88    
Minimum Humidity 63    
Precipitation  
Precipitation 0.04 in 0.07 in 1.53 in (1926)
Month to date precipitation 3.00 3.32  
Year to date precipitation 38.56 42.47  
Sea Level Pressure  
Sea Level Pressure 29.74 in    
Wind  
Wind Speed 12 mph (NW)    
Max Wind Speed 22 mph    
Max Gust Speed 31 mph    
Visibility 8 miles    
Events Snow    
T = Trace of Precipitation, MM = Missing Value Source: NWS Daily Summary

Daily Weather History Graph

Daily Weather History Graph

Search for Another Location

Airport or City:

Trip Planner

Search our weather history database for the weather conditions in past years. The results will help you decide how hot, cold, wet, or windy it might be!

Date:

Astronomy

Dec. 28, 2012 Rise Set
Actual Time 7:15 AM EST 3:58 PM EST
Civil Twilight 6:40 AM EST 4:32 PM EST
Nautical Twilight 6:03 AM EST 5:10 PM EST
Astronomical Twilight 5:26 AM EST 5:46 PM EST
Moon 4:34 PM EST (12/28) 7:04 AM EST (12/28)
Length of Visible Light 9h 51m
Length of Day
8h 43m
Full, 100% of the Moon is Illuminated
Dec 28
Full
Jan 4
Last Quarter
Jan 11
New
Jan 18
First Quarter
Jan 26
Full

Hourly Weather History & Observations

Time (EST) Temp. Windchill Dew Point Humidity Pressure Visibility Wind Dir Wind Speed Gust Speed Precip Events Conditions
12:17 AM 24.8 °F 11.9 °F 21.2 °F 86% 29.58 in 1.2 mi North 16.1 mph 25.3 mph 0.00 in Snow Light Snow
12:47 AM 24.8 °F 14.6 °F 21.2 °F 86% 29.58 in 2.0 mi North 10.4 mph 24.2 mph 0.01 in Snow Light Snow
12:53 AM 25.0 °F 14.2 °F 21.0 °F 85% 29.61 in 3.0 mi North 11.5 mph 18.4 mph 0.01 in Snow Light Snow
1:17 AM 24.8 °F 12.4 °F 19.4 °F 80% 29.58 in 2.0 mi North 15.0 mph 23.0 mph 0.00 in Snow Light Snow
1:42 AM 24.8 °F 11.5 °F 19.4 °F 80% 29.59 in 4.0 mi North 17.3 mph 21.9 mph 0.00 in Snow Light Snow
1:49 AM 24.8 °F 13.4 °F 19.4 °F 80% 29.59 in 6.0 mi NNW 12.7 mph 21.9 mph 0.00 in Snow Light Snow
1:53 AM 25.0 °F 13.1 °F 19.0 °F 78% 29.62 in 8.0 mi NNW 13.8 mph 21.9 mph 0.00 in Snow Light Snow
2:53 AM 26.1 °F 13.6 °F 18.0 °F 71% 29.63 in 10.0 mi NNW 16.1 mph 28.8 mph 0.00 in   Overcast
3:53 AM 26.1 °F 14.0 °F 19.0 °F 75% 29.64 in 10.0 mi NNW 15.0 mph 26.5 mph 0.00 in   Overcast
4:53 AM 26.1 °F 14.5 °F 19.0 °F 75% 29.65 in 10.0 mi NNW 13.8 mph 21.9 mph 0.00 in   Overcast
6:11 AM 26.6 °F 14.7 °F 19.4 °F 74% 29.64 in 10.0 mi North 15.0 mph 24.2 mph N/A   Overcast
6:53 AM 26.1 °F 15.0 °F 19.0 °F 75% 29.69 in 10.0 mi NNW 12.7 mph 23.0 mph N/A   Overcast
7:24 AM 26.6 °F 14.3 °F 19.4 °F 74% 29.66 in 10.0 mi North 16.1 mph 31.1 mph N/A   Overcast
7:53 AM 27.0 °F 16.7 °F 19.0 °F 72% 29.70 in 10.0 mi NNW 11.5 mph 24.2 mph N/A   Overcast
8:53 AM 27.0 °F 16.1 °F 19.9 °F 75% 29.73 in 10.0 mi NNW 12.7 mph - N/A   Overcast
9:38 AM 28.4 °F 18.0 °F 19.4 °F 69% 29.72 in 2.5 mi NW 12.7 mph 21.9 mph 0.01 in   Haze
9:53 AM 28.0 °F 15.7 °F 19.0 °F 69% 29.76 in 10.0 mi NW 17.3 mph 23.0 mph 0.03 in   Overcast
10:53 AM 28.0 °F 18.6 °F 18.0 °F 66% 29.76 in 10.0 mi NW 10.4 mph - N/A   Scattered Clouds
11:53 AM 26.1 °F 13.6 °F 17.1 °F 69% 29.77 in 10.0 mi WNW 16.1 mph 23.0 mph N/A   Partly Cloudy
12:53 PM 26.1 °F 13.6 °F 17.1 °F 69% 29.78 in 10.0 mi WNW 16.1 mph 25.3 mph N/A   Mostly Cloudy
1:41 PM 26.6 °F 14.7 °F 17.6 °F 69% 29.76 in 10.0 mi NW 15.0 mph 20.7 mph N/A   Overcast
1:53 PM 26.1 °F 13.6 °F 17.1 °F 69% 29.79 in 10.0 mi NW 16.1 mph 20.7 mph N/A   Overcast
3:06 PM 26.6 °F 14.7 °F 15.8 °F 64% 29.78 in 10.0 mi NW 15.0 mph 25.3 mph N/A   Scattered Clouds
3:53 PM 25.0 °F 18.1 °F 15.1 °F 66% 29.83 in 10.0 mi WNW 5.8 mph - N/A   Mostly Cloudy
4:53 PM 24.1 °F 13.7 °F 16.0 °F 71% 29.83 in 10.0 mi WNW 10.4 mph - N/A   Partly Cloudy
5:53 PM 23.0 °F 17.0 °F 16.0 °F 74% 29.86 in 10.0 mi West 4.6 mph - N/A   Partly Cloudy
6:53 PM 21.9 °F 11.7 °F 15.1 °F 75% 29.86 in 10.0 mi WNW 9.2 mph 20.7 mph N/A   Clear
7:53 PM 21.9 °F 11.7 °F 14.0 °F 72% 29.88 in 10.0 mi West 9.2 mph 17.3 mph N/A   Clear
8:15 PM 21.2 °F 13.6 °F 14.0 °F 74% 29.86 in 10.0 mi West 5.8 mph - N/A   Mostly Cloudy
8:46 PM 21.2 °F 10.1 °F 14.0 °F 74% 29.85 in 10.0 mi WNW 10.4 mph 19.6 mph N/A   Scattered Clouds
8:53 PM 21.0 °F 9.3 °F 12.9 °F 71% 29.88 in 10.0 mi WNW 11.5 mph 24.2 mph N/A   Partly Cloudy
9:53 PM 19.9 °F 9.3 °F 12.9 °F 74% 29.89 in 10.0 mi WNW 9.2 mph 16.1 mph N/A   Clear
11:32 PM 19.4 °F 8.6 °F 12.2 °F 74% 29.89 in 10.0 mi NW 9.2 mph - N/A   Mostly Cloudy
11:53 PM 19.9 °F 10.1 °F 12.9 °F 74% 29.92 in 10.0 mi WNW 8.1 mph 18.4 mph N/A   Scattered Clouds